Flag for Romania Weather past 2 weeks in Oradea, Romania

Now
68 °F

Sunny.


Feels Like: 68 °F
Forecast: 64 / 83 °F
Wind: 5 mph from East

Location: Oradea Airport

Current Time: Jul 29, 2015 at 8:59:45 AM

Latest Report: Jul 29, 2015 at 8:30 AM


Visibility: 10 mi

Pressure: 29.83 "Hg

Humidity: 60%

Dew point: 54 °F

Location of OradeaLocation

Historic Weather in Oradea — Graph

°F

Oradea temperature yesterday

Maximum temperature yesterday: 81 °F (at 7:00 PM)
Minimum temperature yesterday: 59 °F (at 4:00 AM)
Average temperature yesterday: 69 °F

Past Weeks' High & Low Weather Summary

 TemperatureHumidityPressure
High99 °F (Jul 23, 3:00 PM)100% (Jul 28, 6:00 AM)30.12 "Hg (Jul 28, 6:00 AM)
Low59 °F (Jul 27, 6:00 AM)23% (Jul 23, 7:00 PM)29.71 "Hg (Jul 25, 7:00 PM)
Average79 °F54%29.94 "Hg
* Reported Jul 14 8:00 AM — Jul 29 8:00 AM, Oradea, Weather by CustomWeather, © 2015

Note: Actual official high and low records may vary slightly from our data, if they occured in-between our weather recording intervals... More about our weather records

Advertising

Oradea weather history for previous 24 hours

 ConditionsComfort  
Time TempWeatherWind HumidityBarometerVisibility
8:00 AM
Wed, Jul 29
64 °FSunny.6 mph68%29.83 "Hg10 mi
7:30 AM63 °FSunny.7 mph73%29.80 "Hg10 mi
7:00 AM61 °FClear.7 mph77%29.83 "Hg10 mi
6:30 AM59 °FPassing clouds.6 mph82%29.83 "HgN/A
6:00 AM59 °FPassing clouds.7 mph82%29.83 "HgN/A
5:30 AM61 °FPassing clouds.6 mph77%29.83 "HgN/A
5:00 AM61 °FPassing clouds.6 mph77%29.83 "HgN/A
4:00 AM61 °FCool.5 mph83%29.83 "HgN/A
3:00 AM63 °FPassing clouds.6 mph77%29.86 "HgN/A
2:00 AM64 °FMild.8 mph73%29.86 "HgN/A
12:00 AM64 °FPassing clouds.7 mph78%29.86 "HgN/A
11:00 PM
Tue, Jul 28
64 °FPassing clouds.6 mph78%29.86 "HgN/A
10:30 PM66 °FPassing clouds.5 mph73%29.86 "HgN/A
10:00 PM66 °FMild.3 mph73%29.86 "HgN/A
9:30 PM70 °FMild.No wind64%29.86 "HgN/A
9:00 PM73 °FSunny.2 mph53%29.86 "Hg10 mi
8:30 PM75 °FSunny.5 mph47%29.86 "Hg10 mi
8:00 PM79 °FPassing clouds.5 mph39%29.83 "HgN/A
7:30 PM81 °FSunny.3 mph37%29.83 "Hg10 mi
7:00 PM81 °FPassing clouds.5 mph39%29.83 "HgN/A
6:30 PM79 °FSunny.6 mph42%29.86 "Hg10 mi
6:00 PM79 °FPassing clouds.7 mph42%29.86 "HgN/A
5:30 PM79 °FPassing clouds.9 mph42%29.86 "HgN/A
5:00 PM79 °FSunny.7 mph42%29.86 "Hg10 mi
4:30 PM79 °FPassing clouds.7 mph42%29.86 "HgN/A
4:00 PM77 °FPassing clouds.9 mph44%29.89 "HgN/A
3:30 PM77 °FPassing clouds.8 mph47%29.89 "HgN/A
3:00 PM77 °FSunny.8 mph47%29.89 "Hg10 mi
2:30 PM75 °FPassing clouds.8 mph54%29.89 "HgN/A
2:00 PM75 °FPassing clouds.9 mph54%29.89 "HgN/A
1:30 PM73 °FSunny.9 mph57%29.89 "Hg10 mi
1:00 PM72 °FPassing clouds.12 mph65%29.89 "HgN/A
12:30 PM72 °FPassing clouds.12 mph65%29.89 "HgN/A
12:00 PM70 °FPassing clouds.13 mph69%29.89 "HgN/A
11:30 AM70 °FPartly sunny.13 mph73%29.89 "HgN/A
11:00 AM70 °FPartly sunny.12 mph73%29.89 "HgN/A
10:30 AM68 °FScattered clouds.10 mph73%29.89 "HgN/A
10:00 AM66 °FPartly sunny.10 mph78%29.89 "HgN/A
9:30 AM64 °FPartly sunny.8 mph83%29.89 "HgN/A
9:00 AM63 °FBroken clouds.9 mph88%29.86 "HgN/A
8:00 AM61 °FPassing clouds.7 mph94%29.86 "HgN/A
Weather by CustomWeather, © 2015

See weather overviewHow to use our weather pages